Estación de Sagrada Familia

Ultimos registro cada 15 minutos 30
Estación Fecha / Hora Temperatura Humedad Lluvia Velocidad Dirección Radiación Presion
30 Sagrada Familia 06-05-2026 07:15 13,4 89 0 1,8 356 0 1013,5
29 Sagrada Familia 06-05-2026 07:00 13,8 86 0 0 343 0 1013,6
28 Sagrada Familia 06-05-2026 06:45 14,1 84 0 0 21 0 1013,3
27 Sagrada Familia 06-05-2026 06:30 14 84 0 0 68 0 1012,9
26 Sagrada Familia 06-05-2026 06:15 14 83 0 0,4 355 0 1013,2
25 Sagrada Familia 06-05-2026 06:00 14 84 0 0,4 168 0 1012,8
24 Sagrada Familia 06-05-2026 05:45 14,1 83 0 0 127 0 1013,1
23 Sagrada Familia 06-05-2026 05:30 12,6 91 0 0,4 92 0 1012,8
22 Sagrada Familia 06-05-2026 05:15 11,9 92 0 0,9 13 0 1012,8
21 Sagrada Familia 06-05-2026 05:00 11,5 93 0 0 69 0 1012,9
20 Sagrada Familia 06-05-2026 04:45 11,4 93 0 0 139 0 1012,9
19 Sagrada Familia 06-05-2026 04:30 11,4 92 0 0 168 0 1013
18 Sagrada Familia 06-05-2026 04:15 11,4 92 0 0 92 0 1013
17 Sagrada Familia 06-05-2026 04:00 11,5 91 0 0 210 0 1013
16 Sagrada Familia 06-05-2026 03:45 11,9 91 0 0 163 0 1013
15 Sagrada Familia 06-05-2026 03:30 12,1 90 0 0 106 0 1013,3
14 Sagrada Familia 06-05-2026 03:15 12 92 0 0 150 0 1013,1
13 Sagrada Familia 06-05-2026 03:00 11,4 92 0 0,9 163 0 1013,2
12 Sagrada Familia 06-05-2026 02:45 11,4 92 0 0,4 139 0 1013,6
11 Sagrada Familia 06-05-2026 02:30 11,1 90 0 0 82 0 1013,4
10 Sagrada Familia 06-05-2026 02:15 11,5 89 0 0 10 0 1013,5
9 Sagrada Familia 06-05-2026 02:00 12,1 89 0 0 10 0 1013,7
8 Sagrada Familia 06-05-2026 01:45 12,3 89 0 0 10 0 1013,7
7 Sagrada Familia 06-05-2026 01:30 12,6 89 0 0 10 0 1013,9
6 Sagrada Familia 06-05-2026 01:15 12,9 89 0 0,4 360 0 1013,8
5 Sagrada Familia 06-05-2026 01:00 12,8 89 0 0 71 0 1013,8
4 Sagrada Familia 06-05-2026 00:45 12,9 87 0 0 181 0 1013,6
3 Sagrada Familia 06-05-2026 00:30 13,3 87 0 0 181 0 1013,7
2 Sagrada Familia 06-05-2026 00:15 13,7 86 0 0 187 0 1013,7
1 Sagrada Familia 06-05-2026 00:00 14,1 85 0 0 141 0 1013,9